Weather reports worldwide

Advertisment
Cozzo Spadaro, Italy (16480): temperature & dewpoint: 18.06.2018 11:00:00 - 24.06.2018 11:00:00 (CEST)Cozzo Spadaro, Italy (16480): wind speed: 18.06.2018 11:00:00 - 24.06.2018 11:00:00 (CEST)Cozzo Spadaro, Italy (16480): wind direction: 18.06.2018 11:00:00 - 24.06.2018 11:00:00 (CEST)Cozzo Spadaro, Italy (16480): reduced air pressure: 18.06.2018 11:00:00 - 24.06.2018 11:00:00 (CEST)Cozzo Spadaro, Italy (16480): visibility: 18.06.2018 11:00:00 - 24.06.2018 11:00:00 (CEST)Cozzo Spadaro, Italy (16480): sunshine duration: 18.06.2018 11:00:00 - 24.06.2018 11:00:00 (CEST)
Date & Time tt [°C] td [°C] ff [km/h] ff [kn] dd ppp [hPa] vv [km] sd [min]
24.06.2018 11:00:00 24,0 19,7 5 3 SSW 1014,0 20 24
24.06.2018 10:00:00 23,6 19,5 5 3 SW 1013,8 20 24
24.06.2018 09:00:00 22,6 19,8 4 2 WSW 1013,7 20 30
24.06.2018 08:00:00 21,8 19,2 5 3 W 1013,5 20 30
24.06.2018 07:00:00 - - - - - - - -
24.06.2018 06:00:00 - - - - - - - -
24.06.2018 05:00:00 - - - - - - - -
24.06.2018 04:00:00 - - - - - - - -
24.06.2018 03:00:00 - - - - - - - -
24.06.2018 02:00:00 - - - - - - - -
24.06.2018 01:00:00 - - - - - - - -
24.06.2018 00:00:00 - - - - - - - -
23.06.2018 23:00:00 - - - - - - - -
23.06.2018 22:00:00 - - - - - - - -
23.06.2018 21:00:00 - - - - - - - -
23.06.2018 20:00:00 24,4 21,7 4 2 W 1013,5 18 24
23.06.2018 19:00:00 25,0 22,1 8 4 W 1013,8 18 60
23.06.2018 18:00:00 26,2 21,0 8 4 WSW 1013,9 25 60
23.06.2018 17:00:00 26,8 20,9 5 3 SW 1013,9 20 60
23.06.2018 16:00:00 27,0 20,3 8 4 S 1014,0 25 60
23.06.2018 15:00:00 27,0 19,6 9 5 SSW 1014,2 20 60
23.06.2018 14:00:00 27,0 19,9 8 4 SSE 1014,4 18 60
23.06.2018 13:00:00 27,0 20,1 5 3 SSE 1014,4 12 60
23.06.2018 12:00:00 27,0 19,4 4 2 E 1014,0 12 60
23.06.2018 11:00:00 26,6 21,4 4 2 E 1013,9 10 60
23.06.2018 10:00:00 26,0 21,4 4 2 SE 1013,9 10 60
23.06.2018 09:00:00 24,2 20,5 4 2 WNW 1013,9 10 60
23.06.2018 08:00:00 22,0 20,3 9 5 W 1013,5 10 48
23.06.2018 07:00:00 - - - - - - - -
23.06.2018 06:00:00 - - - - - - - -
23.06.2018 05:00:00 - - - - - - - -
23.06.2018 04:00:00 - - - - - - - -
23.06.2018 03:00:00 - - - - - - - -
23.06.2018 02:00:00 - - - - - - - -
23.06.2018 01:00:00 - - - - - - - -
23.06.2018 00:00:00 - - - - - - - -
22.06.2018 23:00:00 - - - - - - - -
22.06.2018 22:00:00 - - - - - - - -
22.06.2018 21:00:00 - - - - - - - -
22.06.2018 20:00:00 24,0 21,3 15 8 W 1012,3 20 18
22.06.2018 19:00:00 24,2 21,3 18 10 W 1012,3 15 0
22.06.2018 18:00:00 24,8 22,1 18 10 W 1012,9 15 30
22.06.2018 17:00:00 25,0 22,3 22 12 W 1012,9 15 60
22.06.2018 16:00:00 25,4 21,9 24 13 W 1013,2 18 60
22.06.2018 15:00:00 25,6 20,8 26 14 W 1013,5 25 60
22.06.2018 14:00:00 26,0 21,2 22 12 W 1013,9 25 60
22.06.2018 13:00:00 25,6 19,7 24 13 W 1014,1 25 60
22.06.2018 12:00:00 25,4 20,4 21 11 W 1014,6 20 60
22.06.2018 11:00:00 25,4 20,7 18 10 W 1014,6 20 60
22.06.2018 10:00:00 24,4 20,3 16 9 W 1014,6 20 60
22.06.2018 09:00:00 23,6 20,5 11 6 W 1014,8 18 60
22.06.2018 08:00:00 22,4 20,0 11 6 W 1014,8 18 60
22.06.2018 07:00:00 - - - - - - - -
22.06.2018 06:00:00 - - - - - - - -
22.06.2018 05:00:00 - - - - - - - -
22.06.2018 04:00:00 - - - - - - - -
22.06.2018 03:00:00 - - - - - - - -
22.06.2018 02:00:00 - - - - - - - -
22.06.2018 01:00:00 - - - - - - - -
22.06.2018 00:00:00 - - - - - - - -
21.06.2018 23:00:00 - - - - - - - -
21.06.2018 22:00:00 - - - - - - - -
21.06.2018 21:00:00 - - - - - - - -
21.06.2018 20:00:00 23,4 21,1 8 4 WSW 1014,8 20 0
21.06.2018 19:00:00 24,0 20,9 8 4 WSW 1014,8 20 0
21.06.2018 18:00:00 24,0 20,3 8 4 W 1015,5 25 0
21.06.2018 17:00:00 24,0 20,5 9 5 W 1015,8 20 0
21.06.2018 16:00:00 24,2 20,9 8 4 WSW 1015,8 20 0
21.06.2018 15:00:00 25,2 22,1 9 5 SW 1016,0 20 54
21.06.2018 14:00:00 25,4 21,5 9 5 SSE 1016,5 20 60
21.06.2018 13:00:00 25,2 21,7 8 4 S 1016,6 25 60
21.06.2018 12:00:00 25,0 20,7 8 4 S 1016,6 25 60
21.06.2018 11:00:00 25,0 20,7 8 4 SSE 1016,6 20 60
21.06.2018 10:00:00 24,6 21,3 4 2 E 1016,5 20 60
21.06.2018 09:00:00 23,6 21,1 4 2 S 1016,6 20 60
21.06.2018 08:00:00 22,2 19,9 0 0 N 1016,6 15 60
21.06.2018 07:00:00 - - - - - - - -
21.06.2018 06:00:00 - - - - - - - -
21.06.2018 05:00:00 - - - - - - - -
21.06.2018 04:00:00 - - - - - - - -
21.06.2018 03:00:00 - - - - - - - -
21.06.2018 02:00:00 - - - - - - - -
21.06.2018 01:00:00 - - - - - - - -
21.06.2018 00:00:00 - - - - - - - -
20.06.2018 23:00:00 - - - - - - - -
20.06.2018 22:00:00 - - - - - - - -
20.06.2018 21:00:00 - - - - - - - -
20.06.2018 20:00:00 23,0 20,5 0 0 N 1015,8 20 0
20.06.2018 19:00:00 23,2 20,5 2 1 ESE 1015,6 20 0
20.06.2018 18:00:00 23,4 20,7 5 3 SE 1015,8 20 60
20.06.2018 17:00:00 23,0 20,7 4 2 E 1016,0 20 60
20.06.2018 16:00:00 22,4 20,7 8 4 NE 1016,0 20 6
20.06.2018 15:00:00 20,8 20,5 9 5 NNE 1016,1 15 0
20.06.2018 14:00:00 20,6 20,3 9 5 N 1016,6 15 0
20.06.2018 13:00:00 21,4 20,6 11 6 NNW 1016,7 12 0
20.06.2018 12:00:00 24,8 22,7 15 8 ESE 1016,0 10 0
20.06.2018 11:00:00 26,0 23,7 18 10 E 1015,8 15 60
20.06.2018 10:00:00 25,2 23,4 18 10 ENE 1015,0 15 48
20.06.2018 09:00:00 24,2 22,8 18 10 ENE 1015,0 15 54
20.06.2018 08:00:00 23,2 21,1 21 11 NE 1024,8 20 48
20.06.2018 07:00:00 - - - - - - - -
20.06.2018 06:00:00 - - - - - - - -
20.06.2018 05:00:00 - - - - - - - -
20.06.2018 04:00:00 - - - - - - - -
20.06.2018 03:00:00 - - - - - - - -
20.06.2018 02:00:00 - - - - - - - -
20.06.2018 01:00:00 - - - - - - - -
20.06.2018 00:00:00 - - - - - - - -
19.06.2018 23:00:00 - - - - - - - -
19.06.2018 22:00:00 - - - - - - - -
19.06.2018 21:00:00 - - - - - - - -
19.06.2018 20:00:00 26,0 20,3 5 3 NNE 1012,9 20 0
19.06.2018 19:00:00 26,0 20,3 5 3 WNW 1012,7 20 0
19.06.2018 18:00:00 26,2 21,2 2 1 SW 1012,4 20 36
19.06.2018 17:00:00 26,4 22,0 5 3 SE 1012,2 20 60
19.06.2018 16:00:00 26,6 22,0 8 4 SE 1012,1 20 60
19.06.2018 15:00:00 26,6 22,2 5 3 E 1012,0 20 60
19.06.2018 14:00:00 26,8 22,2 9 5 ENE 1012,0 20 60
19.06.2018 13:00:00 26,6 21,8 13 7 ENE 1011,9 20 60
19.06.2018 12:00:00 26,4 21,2 16 9 ENE 1011,9 20 60
19.06.2018 11:00:00 26,0 21,0 15 8 ENE 1011,9 20 60
19.06.2018 10:00:00 25,6 21,1 16 9 NE 1011,7 20 60
19.06.2018 09:00:00 24,0 19,3 15 8 NE 1011,5 20 60
19.06.2018 08:00:00 23,6 20,3 13 7 NE 1011,1 20 60
19.06.2018 07:00:00 - - - - - - - -
19.06.2018 06:00:00 - - - - - - - -
19.06.2018 05:00:00 - - - - - - - -
19.06.2018 04:00:00 - - - - - - - -
19.06.2018 03:00:00 - - - - - - - -
19.06.2018 02:00:00 - - - - - - - -
19.06.2018 01:00:00 - - - - - - - -
19.06.2018 00:00:00 - - - - - - - -
18.06.2018 23:00:00 - - - - - - - -
18.06.2018 22:00:00 - - - - - - - -
18.06.2018 21:00:00 - - - - - - - -
18.06.2018 20:00:00 23,0 20,5 9 5 W 1010,0 20 0
18.06.2018 19:00:00 26,0 19,4 9 5 W 1009,9 20 48
18.06.2018 18:00:00 26,0 18,9 8 4 W 1009,9 20 60
18.06.2018 17:00:00 26,8 19,9 8 4 WSW 1010,1 20 60
18.06.2018 16:00:00 27,0 18,3 5 3 SSW 1010,9 20 60
18.06.2018 15:00:00 27,0 19,1 8 4 SSW 1010,9 20 60
18.06.2018 14:00:00 26,6 18,7 9 5 SW 1011,2 20 60
18.06.2018 13:00:00 26,4 18,8 9 5 SW 1011,6 20 60
18.06.2018 12:00:00 27,0 19,9 8 4 SW 1011,4 15 60
18.06.2018 11:00:00 25,4 18,4 5 3 SW 1010,8 15 60

tt = temperature
td = dewpoint
ff = wind speed
dd = wind direction
ppp = reduced air pressure
vv = visibility
sd = sunshine duration

Next stations